Location: Carri�res
(48.9069°N, 2.1792°E)
Time: 20:19:31
(UTC+00:00)

Lacrosse 5 - Pass Details

Date: 17 January 2021
Orbit: 715 x 724 km, 57.0° (Epoch: 01 March)

Event Time Altitude Azimuth Distance (km) Brightness Sun altitude
Rises 20:12:20 0° 302° (WNW) 3,123 6.0 -36.7°
Reaches altitude 10° 20:14:50 10° 295° (WNW) 2,200 5.1 -37.1°
Enters shadow 20:16:52 22° 281° (W) 1,536 4.1 -37.4°
